Find Starlink 37142

NORAD ID: 68296 Int'l Des: 2026-057 Owner: SPXS Country: US Constellation: starlink operational
LEOCIRCULARRETROGRADE

Live Position

Loading 3D Globe...

About Starlink 37142

Description loading...

Upcoming Passes

Passes for default location (London). Set your location on the main map for personalized predictions.

Altitude History

Loading altitude history...

Two-Line Element Set

1 68296U 26057C 26126.30673931 .00203556 00000-0 13310-2 0 9991
2 68296 97.2836 251.5946 0001944 121.8792 238.2662 15.75230402 7351
Epoch: May 6, 2026 • Age: 15 hours

Current Status

Altitude 351.7 km
Velocity 7.70 km/s
Sub-Earth Point 54.19°N, 34.75°E
Launch Date Mar 20, 2026
Age 0.1 years
Type internet

Technical Details

Classification Payload
Mass 575.00 kg
Dry Mass 530.00 kg
Total Mass 575.00 kg
Length 0.30 m
Diameter 4.10 m
Span 29.00 m
Shape Box + pan
Manufacturer SPXS
Bus Type Starlink V2MO
Phase Status In Orbit
Owner/State SPXS/US

Most Searched